Regional Weather Roundup
Issued by NWS

Home | Current Version | Previous Version | Graphics & Text | Print | Product List | Glossary On
Versions: 1 2 3 4 5 6 7 8 9 10 11 12 13 14 15 16 17 18 19 20 21 22 23 24 25 26 27 28 29 30 31 32 33 34 35 36 37 38 39 40 41 42 43 44 45 46 47 48 49 50
000
ASUS43 KOAX 262302
RWRNE

WEATHER ROUNDUP FOR NEBRASKA
NATIONAL WEATHER SERVICE OMAHA NE
500 PM CST WED NOV 26 2014

NOTES: SATELLITE DATA IS BEING USED TO AUGMENT CLOUD COVER ABOVE
       12000 FEET.
       "FAIR" INDICATES FEW OR NO CLOUDS BELOW 12,000 FEET WITH NO
       SIGNIFICANT WEATHER AND/OR OBSTRUCTIONS TO VISIBILITY.

  * THESE STATIONS DO NOT REPORT WEATHER SUCH AS RAIN...SNOW OR FOG.

NEZ001>004-019>022-054>056-270000-
NEBRASKA PANHANDLE

CITY           SKY/WX    TMP DP  RH WIND       PRES   REMARKS
SCOTTSBLUFF    LGT SNOW  29  27  92 S5        30.24S VSB 1   WCI  24
ALLIANCE       CLOUDY    30  27  88 W5        30.25R WCI  25
CHADRON        CLOUDY    52  25  35 SW6       30.26R
SIDNEY         LGT SNOW  29  25  85 CALM      30.26S FOG
$$

NEZ057>060-069>072-079>082-270000-
SOUTHWEST NEBRASKA

CITY           SKY/WX    TMP DP  RH WIND       PRES   REMARKS
NORTH PLATTE   CLOUDY    33  19  56 N5        30.30R WCI  29
IMPERIAL       LGT SNOW  31  27  85 W6        30.31R FOG     WCI  25
LEXINGTON      CLOUDY    32  19  58 NW7       30.32S WCI  26
MCCOOK         CLOUDY    36  19  50 NW9       30.31R WCI  29
$$

NEZ005>010-023>029-035>040-094-270000-
NORTH CENTRAL NEBRASKA

CITY           SKY/WX    TMP DP  RH WIND       PRES   REMARKS
VALENTINE      CLOUDY    28  18  66 CALM      30.30S
AINSWORTH      CLOUDY    25  18  75 N6        30.31R WCI  18
BROKEN BOW     CLOUDY    29  18  63 N12       30.30R WCI  19
ORD            CLOUDY    27  16  63 N13       30.33R WCI  16
$$

NEZ041-046>049-061>064-073>077-083>087-270000-
SOUTH CENTRAL NEBRASKA

CITY           SKY/WX    TMP DP  RH WIND       PRES   REMARKS
GRAND ISLAND   CLOUDY    29  18  63 N17       30.33R WCI  17
AURORA         CLOUDY    29  18  65 N14G22    30.32R WCI  18
HASTINGS       CLOUDY    29  18  63 N14       30.32R WCI  18
KEARNEY *      CLOUDY    30  16  55 NW12      30.33R WCI  21
YORK           MOCLDY    28  19  69 N13G23    30.31R WCI  18
$$

NEZ011>018-030>034-042>045-270000-
NORTHEAST NEBRASKA

CITY           SKY/WX    TMP DP  RH WIND       PRES   REMARKS
NORFOLK        CLOUDY    23  15  71 N21       30.32S WCI   8
BLAIR          CLOUDY    27  20  77 NW20G28   30.27R WCI  13
COLUMBUS *     CLOUDY    25  16  68 N17G24    30.34R WCI  11
TEKAMAH        CLOUDY    25  18  74 NW20      30.32R WCI  11
$$

NEZ050>053-065>068-078-088>093-270000-
SOUTHEAST NEBRASKA

CITY           SKY/WX    TMP DP  RH WIND       PRES   REMARKS
LINCOLN        CLOUDY    27  18  69 N22       30.32R WCI  13
OMAHA EPPLEY   CLOUDY    28  21  75 N17G25    30.29R WCI  16
FALLS CITY     CLOUDY    30  22  72 NW23G31   30.24R WCI  17
NEBRASKA CITY  CLOUDY    28  20  72 N21G29    30.25R WCI  15
PLATTSMOUTH    CLOUDY    28  20  72 NW15G23   30.26R WCI  16
$$

NEZ044-045-051>053-067-270000-
OMAHA AREA

CITY           SKY/WX    TMP DP  RH WIND       PRES   REMARKS
OMAHA EPPLEY   CLOUDY    28  21  75 N17G25    30.29R WCI  16
BLAIR          CLOUDY    27  20  77 NW20G28   30.27R WCI  13
OFFUTT AFB     CLOUDY    28  20  72 NW15G23   30.27R WCI  16
PLATTSMOUTH    CLOUDY    28  20  72 NW15G23   30.26R WCI  16
WAHOO          CLOUDY    25  19  77 N21       30.31R WCI  11
$$


USA.gov is the U.S. government's official web portal to all federal, state and local government web resources and services.